STARLINK-30074, 57508

Orbit data source: Space-Track

STARLINK-30074, 57508 is a payload satellite owned by SpaceX/Seattle (US) in LEO that was launched on Mon, 07 Aug 2023 UTC via an FALCON 9 launch vehicle from the Air Force Eastern Test Range (AFETR). Payload-class satellites include a variety of spacecraft equipped with specific instruments for various scientific and technological missions. These include communications satellites like Starlink; space stations such as the ISS; scientific satellites like the Hubble; Earth observation satellites from companies like Planet Labs, Umbra, and HawkEye 360; GPS; miniature CubeSats for education and research; and military/defense satellites.

Loading next visibility...
Identifier
57508, 2023-113P
Orbit
LEO
Country
Flag of USUS
Related business
Manufacturer
SpaceX/Seattle
Mission
Operational Commercial Communications
Bus & Motor
STARLINK V2M, Unknown motor
Mass
730 kg wet, ~700 kg dry
Launch date (UTC)
2023-08-07 (3 years ago)
Launch vehicle
FALCON 9
Launch site
Air Force Eastern Test Range (AFETR)
Object type
Payload
Rocket body
Debris
Shape & HBR
Box + 2 Pan, 17.7 m
Radar Cross Section
33.884 m², Large (>1 m²)

Expand to show TLE details & history
Last TLE update: 2 days ago

TLE from 2 days ago
0 STARLINK-30074
1 57508U 23113P   26171.02066782  .00009291  00000-0  34663-3 0  9999
2 57508  43.0034 158.3008 0001288 243.5936 116.4784 15.27587401159115
Epoch: 2026-06-20T00:29Z
TLE epoch observation values (Epoch: 2026-06-20T00:29:45.699Z)
Latitude
Longitude
-117.38089°
Altitude
483.197 km
Speed
7.625 km/s
True Right ascension
10h 33m 12s
True Declination
0° 00' 00"
Sunlit
Object was in daylight at epoch
Visualization orbit readout
Latitude
Unknown
Longitude
Unknown
Altitude
Unknown
Speed
Unknown
Apparent Right ascension
Unknown
Apparent Declination
Unknown
Sunlit
N/A
Visualization observer readout
Local Sidereal Time
21:26:02
Azimuth
Unknown
Elevation
Unknown
Doppler factor
Unknown
Orbital elements
Apogee altitude
485.856 km
Perigee altitude
484.088 km
Semi-major axis
6,863.109 km
Eccentricity
0.00013
Inclination
43.0034°
RAAN
158.3008°
Arg. of periapsis
243.5936°
True anomaly
116.49161°
Mean anomaly
116.4784°
Eccentric anomaly
116.48501°
Mean motion
3.81735 °/min
Orbital period
94.31 mins
BSTAR
0.00034663
Loading maneuver chart data...
Computing Atmospheric mass density...
Loading historical data...
Loading historical data...
Loading historical data...
Loading historical data...
Loading historical data...
Loading historical data...
Loading historical data...

Documentation

Showing up to 5 results
|